CW7368 Weather Reports


Display with metric or nautical units.
time (UTC)temp
F
wind
direction
speed
MPH
gust
MPH
rain 1hr
in
rain 24hr
in
rain mn
in
humidity
%
barometer
mb
20181016065805 52 81 1.0 8.0 0.00 0.00 0.00 84 1019.9
20181016065305 52 81 5.0 9.0 0.00 0.00 0.00 84 1019.8
20181016064805 52 71 3.0 9.0 0.00 0.00 0.00 84 1019.8
20181016064305 52 75 3.0 10.0 0.00 0.00 0.00 83 1019.8
20181016063805 53 58 4.0 9.0 0.00 0.00 0.00 82 1019.8
20181016063311 53 73 5.0 12.0 0.00 0.00 0.00 82 1019.9
20181016062805 53 64 6.0 12.0 0.00 0.00 0.00 81 1019.9
20181016062305 53 76 5.0 12.0 0.00 0.00 0.00 80 1020.0
20181016061804 53 61 6.0 12.0 0.00 0.00 0.00 79 1020.1
20181016061305 53 63 2.0 10.0 0.00 0.00 0.00 79 1020.3
20181016060805 53 79 5.0 12.0 0.00 0.00 0.00 78 1020.4
20181016060305 54 68 7.0 13.0 0.00 0.00 0.00 77 1020.3
20181016055805 54 66 6.0 15.0 0.00 0.00 0.00 76 1020.4
20181016055305 54 87 6.0 13.0 0.00 0.00 0.00 76 1020.4
20181016054805 54 80 3.0 13.0 0.00 0.00 0.00 75 1020.6
20181016054304 54 58 6.0 12.0 0.00 0.00 0.00 74 1020.7
20181016053805 55 79 7.0 13.0 0.00 0.00 0.00 74 1020.8
20181016053306 55 86 6.0 12.0 0.00 0.00 0.00 73 1020.9
20181016052805 55 62 5.0 14.0 0.00 0.00 0.00 72 1021.0
20181016052306 55 86 2.0 14.0 0.00 0.00 0.00 71 1021.1
20181016051806 55 88 5.0 10.0 0.00 0.00 0.00 73 1021.1
20181016051305 55 67 6.0 16.0 0.00 0.00 0.00 72 1021.1
20181016050805 55 62 5.0 13.0 0.00 0.00 0.00 71 1021.2
20181016050305 55 66 3.0 12.0 0.00 0.00 0.00 71 1021.3
20181016045805 55 73 7.0 15.0 0.00 0.00 0.00 71 1021.3
20181016045305 55 58 7.0 14.0 0.00 0.00 0.00 70 1021.3
20181016044805 55 64 5.0 13.0 0.00 0.00 0.00 70 1021.4
20181016044305 56 103 5.0 14.0 0.00 0.00 0.00 69 1021.5
20181016043805 56 75 6.0 14.0 0.00 0.00 0.00 69 1021.4
20181016043306 56 77 9.0 17.0 0.00 0.00 0.00 67 1021.5
20181016042805 56 75 6.0 14.0 0.00 0.00 0.00 67 1021.5
20181016042306 56 109 3.0 10.0 0.00 0.00 0.00 68 1021.5
20181016041805 56 58 6.0 14.0 0.00 0.00 0.00 67 1021.4
20181016041305 56 70 9.0 15.0 0.00 0.00 0.00 67 1021.4
20181016040805 57 85 9.0 14.0 0.00 0.00 0.00 64 1021.5
20181016040306 57 92 6.0 13.0 0.00 0.00 0.00 63 1021.6
20181016035805 57 66 9.0 16.0 0.00 0.00 0.00 64 1021.6
20181016035305 57 79 5.0 15.0 0.00 0.00 0.00 65 1021.7
20181016034805 57 75 5.0 15.0 0.00 0.00 0.00 64 1021.8
20181016034304 57 81 7.0 15.0 0.00 0.00 0.00 62 1021.9
20181016033805 57 94 8.0 14.0 0.00 0.00 0.00 61 1021.9
20181016033305 57 61 6.0 15.0 0.00 0.00 0.00 61 1021.9
20181016032805 58 90 6.0 14.0 0.00 0.00 0.00 60 1021.9
20181016032305 58 82 4.0 14.0 0.00 0.00 0.00 59 1021.8
20181016031805 57 95 8.0 15.0 0.00 0.00 0.00 59 1021.9
20181016031305 58 117 9.0 16.0 0.00 0.00 0.00 57 1021.9
20181016030805 58 55 6.0 14.0 0.00 0.00 0.00 58 1022.0
20181016030305 59 98 6.0 13.0 0.00 0.00 0.00 58 1022.1
20181016025806 58 95 6.0 13.0 0.00 0.00 0.00 59 1022.1
20181016025305 58 93 6.0 15.0 0.00 0.00 0.00 59 1022.1
20181016024805 58 65 5.0 12.0 0.00 0.00 0.00 60 1022.2
20181016024305 58 85 7.0 16.0 0.00 0.00 0.00 59 1022.2
20181016023805 58 106 9.0 14.0 0.00 0.00 0.00 58 1022.4
20181016023305 58 83 6.0 13.0 0.00 0.00 0.00 60 1022.5
20181016022804 58 46 7.0 15.0 0.00 0.00 0.00 60 1022.6
20181016022306 58 59 6.0 14.0 0.00 0.00 0.00 59 1022.6
20181016021805 58 66 7.0 17.0 0.00 0.00 0.00 59 1022.7
20181016021305 58 82 8.0 16.0 0.00 0.00 0.00 59 1022.8
20181016020805 58 65 7.0 14.0 0.00 0.00 0.00 60 1022.9
20181016020305 58 63 8.0 16.0 0.00 0.00 0.00 59 1023.0
20181016015805 58 73 6.0 15.0 0.00 0.00 0.00 58 1023.1
20181016015305 58 57 8.0 14.0 0.00 0.00 0.00 59 1023.2
20181016014805 58 72 8.0 16.0 0.00 0.00 0.00 58 1023.4
20181016014305 58 74 7.0 13.0 0.00 0.00 0.00 59 1023.6
20181016013804 58 75 6.0 15.0 0.00 0.00 0.00 58 1023.6
20181016013305 58 71 6.0 14.0 0.00 0.00 0.00 57 1023.7
20181016012805 58 72 6.0 13.0 0.00 0.00 0.00 58 1023.7
20181016012305 59 99 8.0 14.0 0.00 0.00 0.00 57 1023.8
20181016011805 58 67 7.0 14.0 0.00 0.00 0.00 58 1023.8
20181016011304 58 84 8.0 13.0 0.00 0.00 0.00 57 1024.0
20181016010805 58 79 7.0 13.0 0.00 0.00 0.00 58 1024.1
20181016010305 58 62 7.0 15.0 0.00 0.00 0.00 57 1024.2
20181016005804 59 55 6.0 14.0 0.00 0.00 0.00 57 1024.2
20181016005305 59 81 6.0 12.0 0.00 0.00 0.00 56 1024.3
20181016004805 59 51 6.0 12.0 0.00 0.00 0.00 56 1024.4
20181016004305 58 116 5.0 13.0 0.00 0.00 0.00 57 1024.5
20181016003805 58 83 8.0 13.0 0.00 0.00 0.00 56 1024.6
20181016003305 59 77 6.0 14.0 0.00 0.00 0.00 56 1024.6
20181016002805 59 77 6.0 12.0 0.00 0.00 0.00 57 1024.7
20181016002308 58 70 6.0 20.0 0.00 0.00 0.00 57 1024.7
20181016001807 59 68 4.0 10.0 0.00 0.00 0.00 56 1024.8
20181016001306 59 69 7.0 14.0 0.00 0.00 0.00 56 1024.9
20181016000805 59 111 5.0 12.0 0.00 0.00 0.00 55 1025.0
20181016000309 60 53 5.0 12.0 0.00 0.00 0.00 56 1025.0
20181015235810 59 56 3.0 12.0 0.00 0.00 0.00 56 1025.1
20181015235304 58 67 3.0 12.0 0.00 0.00 0.00 56 1025.2
20181015234805 59 78 7.0 14.0 0.00 0.00 0.00 55 1025.3
20181015234304 58 108 7.0 15.0 0.00 0.00 0.00 57 1025.3
20181015233805 58 59 8.0 14.0 0.00 0.00 0.00 57 1025.5
20181015233305 58 62 5.0 12.0 0.00 0.00 0.00 58 1025.5
20181015232805 58 77 6.0 12.0 0.00 0.00 0.00 56 1025.5
20181015232305 59 65 5.0 14.0 0.00 0.00 0.00 56 1025.7
20181015231806 59 99 5.0 10.0 0.00 0.00 0.00 56 1025.8
20181015231305 59 65 4.0 12.0 0.00 0.00 0.00 56 1025.8
20181015230805 59 56 5.0 12.0 0.00 0.00 0.00 56 1026.0
20181015230305 58 81 5.0 10.0 0.00 0.00 0.00 57 1026.2
20181015225805 58 26 4.0 12.0 0.00 0.00 0.00 58 1026.3
20181015225305 58 28 4.0 10.0 0.00 0.00 0.00 59 1026.4
20181015224804 57 55 6.0 12.0 0.00 0.00 0.00 60 1026.5
20181015224305 58 57 6.0 12.0 0.00 0.00 0.00 59 1026.6
20181015223805 58 65 7.0 14.0 0.00 0.00 0.00 59 1026.7
20181015223305 58 69 6.0 10.0 0.00 0.00 0.00 58 1026.7
20181015222805 58 81 3.0 10.0 0.00 0.00 0.00 59 1026.8
20181015222304 57 60 5.0 12.0 0.00 0.00 0.00 59 1026.9
20181015221805 58 76 3.0 9.0 0.00 0.00 0.00 59 1027.0
20181015221304 58 126 5.0 12.0 0.00 0.00 0.00 58 1027.1
20181015220805 57 77 5.0 10.0 0.00 0.00 0.00 59 1027.0
20181015220305 57 66 5.0 12.0 0.00 0.00 0.00 59 1027.1
20181015215805 57 59 7.0 12.0 0.00 0.00 0.00 58 1027.2
20181015215305 57 18 5.0 12.0 0.00 0.00 0.00 59 1027.2
20181015214805 57 39 4.0 12.0 0.00 0.00 0.00 58 1027.2
20181015214305 57 77 5.0 10.0 0.00 0.00 0.00 59 1027.3
20181015213805 57 51 4.0 10.0 0.00 0.00 0.00 59 1027.4
20181015213305 57 60 4.0 9.0 0.00 0.00 0.00 60 1027.4
20181015212805 56 82 6.0 12.0 0.00 0.00 0.00 61 1027.5
20181015212305 57 105 5.0 13.0 0.00 0.00 0.00 61 1027.5
20181015211805 57 92 3.0 9.0 0.00 0.00 0.00 62 1027.6
20181015211305 56 94 6.0 13.0 0.00 0.00 0.00 62 1027.8
20181015210805 56 90 4.0 10.0 0.00 0.00 0.00 63 1027.9
20181015210305 57 87 3.0 7.0 0.00 0.00 0.00 65 1027.9
20181015205805 56 73 3.0 7.0 0.00 0.00 0.00 66 1028.0
20181015205305 56 75 4.0 9.0 0.00 0.00 0.00 66 1028.0
20181015204806 55 98 3.0 9.0 0.00 0.00 0.00 70 1028.0
20181015204305 55 71 4.0 12.0 0.00 0.00 0.00 70 1028.0
20181015203805 54 72 3.0 9.0 0.00 0.00 0.00 73 1028.0
20181015203305 54 69 1.0 6.0 0.00 0.00 0.00 74 1028.1
20181015202805 54 69 1.0 7.0 0.00 0.00 0.00 76 1028.2
20181015202305 54 78 4.0 10.0 0.00 0.00 0.00 75 1028.2
20181015201806 54 67 3.0 9.0 0.00 0.00 0.00 77 1028.2
20181015201304 54 64 3.0 8.0 0.00 0.00 0.00 77 1028.2
20181015200805 54 57 3.0 5.0 0.00 0.00 0.00 80 1028.3
20181015200305 53 57 2.0 5.0 0.00 0.00 0.00 80 1028.3
20181015195805 53 57 3.0 5.0 0.00 0.00 0.00 81 1028.4
20181015195305 53 57 3.0 5.0 0.00 0.00 0.00 81 1028.5
20181015194812 53 53 0.0 3.0 0.00 0.00 0.00 84 1028.5
20181015194305 52 53 2.0 5.0 0.00 0.00 0.00 84 1028.6
20181015193807 52 53 3.0 6.0 0.00 0.00 0.00 85 1028.5
20181015193306 51 51 1.0 3.0 0.00 0.00 0.00 86 1028.6
20181015192805 51 51 2.0 5.0 0.00 0.00 0.00 86 1028.7
20181015192304 51 51 0.0 3.0 0.00 0.00 0.00 88 1028.7
20181015191805 50 51 0.0 2.0 0.00 0.00 0.00 88 1028.7
20181015191305 50 51 0.0 1.0 0.00 0.00 0.00 90 1028.8
20181015190805 49 51 0.0 0.0 0.00 0.00 0.00 90 1028.8
20181015190305 48 51 0.0 2.0 0.00 0.00 0.00 91 1028.9
20181015185804 47 51 0.0 0.0 0.00 0.00 0.00 91 1029.0
20181015185304 46 51 0.0 1.0 0.00 0.00 0.00 91 1029.0
20181015184807 46 51 0.0 2.0 0.00 0.00 0.00 92 1029.0
20181015184305 46 51 0.0 0.0 0.00 0.00 0.00 92 1029.0
20181015183805 46 51 0.0 0.0 0.00 0.00 0.00 93 1029.0
20181015183305 45 51 0.0 0.0 0.00 0.00 0.00 93 1029.1
20181015182805 44 51 0.0 0.0 0.00 0.00 0.00 92 1029.1
20181015182305 44 51 0.0 0.0 0.00 0.00 0.00 92 1029.1
20181015181808 44 51 0.0 0.0 0.00 0.00 0.00 92 1029.1
20181015181306 44 51 0.0 0.0 0.00 0.00 0.00 92 1029.1
20181015180804 44 51 0.0 0.0 0.00 0.00 0.00 92 1029.0
20181015180305 43 51 0.0 1.0 0.00 0.00 0.00 92 1028.9
20181015175805 43 51 0.0 0.0 0.00 0.00 0.00 92 1028.9
20181015175305 43 51 0.0 0.0 0.00 0.00 0.00 92 1028.9
20181015174805 43 51 1.0 2.0 0.00 0.00 0.00 92 1028.9
20181015174305 43 51 0.0 0.0 0.00 0.00 0.00 92 1028.9
20181015173806 43 51 0.0 0.0 0.00 0.00 0.00 92 1028.9
20181015173305 43 51 0.0 0.0 0.00 0.00 0.00 92 1028.9
20181015172805 43 51 0.0 0.0 0.00 0.00 0.00 92 1028.9
20181015172305 43 51 0.0 0.0 0.00 0.00 0.00 92 1028.9
20181015171805 42 51 0.0 0.0 0.00 0.00 0.00 91 1028.8
20181015171305 42 51 0.0 0.0 0.00 0.00 0.00 91 1028.9
20181015170809 42 51 0.0 5.0 0.00 0.00 0.00 91 1028.9